This demonstration page uses our WeatherBlox Daily Observations layout. Learn more.

Left ArrowRight Arrow

41.55636, -103.73856

Hourly Observations for June 14, 2021

Temp ( °F °C ) Dew Point ( °F °C ) Humidity (%) Winds ( mph kmh ) Pressure ( in mb ) Visibility ( mi km ) Precip ( " mm )
12:58 am 00:58 Clear 69 20.5 55 12.9 62 62 SE 17 28 30.06 1018 10 16 N/A
1:58 am 01:58 Mostly Cloudy 71 21.6 55 12.9 58 58 SE 14 22 30.04 1017 10 16 N/A
2:58 am 02:58 Mostly Clear 70 21.3 55 13 59 59 SSE 25 41 30.01 1016 10 16 N/A
3:58 am 03:58 Clear 68 20 56 13.3 65 65 SSE 18 30 30.00 1016 10 16 N/A
4:58 am 04:58 Clear 67 19.3 58 14.4 73 73 SSE 20 31 30.01 1016 10 16 N/A
5:58 am 05:58 Sunny 66 19.1 60 15.3 79 79 S 24 39 30.02 1017 10 16 N/A
6:58 am 06:58 Sunny 69 20.4 59 15.2 72 72 S 24 39 30.02 1017 10 16 N/A
7:58 am 07:58 Sunny 73 22.9 58 14.6 60 60 S 21 33 30.01 1016 10 16 N/A
8:58 am 08:58 Sunny 80 26.6 56 13.3 44 44 S 16 26 30.02 1017 10 16 N/A
9:58 am 09:58 Sunny 84 28.7 56 13.4 39 39 SE 7 11 30.02 1017 10 16 N/A
10:58 am 10:58 Sunny 87 30.5 58 14.3 37 37 SSE 9 15 30.01 1016 10 16 N/A
11:58 am 11:58 Sunny 89 31.8 57 13.8 33 33 S 13 20 29.99 1016 10 16 N/A
12:58 pm 12:58 Sunny 92 33.3 55 12.9 29 29 S 10 17 29.98 1015 10 16 N/A
1:58 pm 13:58 Sunny 95 35.1 52 11.3 23 23 S 15 24 29.95 1014 10 16 N/A
2:58 pm 14:58 Mostly Sunny 97 36.1 51 10.7 21 21 S 16 26 29.92 1013 10 16 N/A
3:58 pm 15:58 Sunny 97 35.9 47 8.6 19 19 S 16 26 29.92 1013 10 16 N/A
4:58 pm 16:58 Mostly Sunny 96 35.7 47 8.6 19 19 S 16 26 29.91 1013 10 16 N/A
5:58 pm 17:58 Partly Cloudy 95 35.2 55 12.9 26 26 SE 18 30 29.91 1013 10 16 N/A
6:58 pm 18:58 Sunny 91 33 53 11.9 28 28 SE 18 30 29.91 1013 10 16 N/A
7:58 pm 19:58 Sunny 87 30.8 54 12.3 32 32 SE 21 33 29.91 1013 10 16 N/A
8:58 pm 20:58 Clear 83 28.5 57 13.7 40 40 SE 18 30 29.94 1014 10 16 N/A
9:58 pm 21:58 Clear 83 28.2 58 14.5 43 43 SSE 28 44 29.95 1014 10 16 N/A

Powered by AerisWeather